This demonstration page uses our WeatherBlox Daily Observations layout. Learn more.

Left ArrowRight Arrow

39.92423, -83.80882

Hourly Observations for May 25, 2018

Temp ( °F °C ) Dew Point ( °F °C ) Humidity (%) Winds ( mph kmh ) Pressure ( in mb ) Visibility ( mi km ) Precip ( " mm )
12:56 am 00:56 Clear 61 16.1 55 12.8 81 81 Calm 30.09 1019 10 16.0934 0 0
1:56 am 01:56 Clear 59 15 55 12.8 87 87 Calm 30.08 1019 10 16.0934 0 0
2:56 am 02:56 Clear 58 14.4 54 12.2 87 87 E 3 6 30.06 1018 10 16.0934 0 0
3:56 am 03:56 Clear 56 13.3 53 11.7 90 90 Calm 30.06 1018 10 16.0934 0 0
4:56 am 04:56 Clear 56 13.3 53 11.7 90 90 Calm 30.05 1018 10 16.0934 0 0
5:56 am 05:56 Clear 56 13.3 53 11.7 90 90 Calm 30.04 1017 10 16.0934 0 0
6:56 am 06:56 Sunny 55 12.8 53 11.7 93 93 E 3 6 30.05 1018 10 16.0934 0 0
7:56 am 07:56 Sunny 63 17.2 58 14.4 84 84 Calm 30.04 1017 9 14.48406 0 0
8:56 am 08:56 Sunny 71 21.7 59 15 66 66 Calm 30.03 1017 10 16.0934 0 0
9:56 am 09:56 Sunny 76 24.4 57 13.9 52 52 VRB 3 6 30.02 1017 10 16.0934 0 0
10:56 am 10:56 Sunny 78 25.6 56 13.3 47 47 W 5 7 30.01 1016 10 16.0934 0 0
11:56 am 11:56 Sunny 80 26.7 56 13.3 44 44 WSW 5 7 30 1016 10 16.0934 0 0
12:56 pm 12:56 Sunny 81 27.2 54 12.2 39 39 S 8 13 29.98 1015 10 16.0934 0 0
1:56 pm 13:56 Sunny 83 28.3 54 12.2 37 37 SW 8 13 29.96 1015 10 16.0934 0 0
2:56 pm 14:56 Sunny 84 28.9 51 10.6 32 32 SSW 9 15 29.95 1014 10 16.0934 0 0
3:56 pm 15:56 Sunny 85 29.4 53 11.7 33 33 SSW 8 13 29.92 1013 10 16.0934 0 0
4:56 pm 16:56 Sunny 85 29.4 54 12.2 35 35 VRB 3 6 29.89 1012 10 16.0934 0 0
5:56 pm 17:56 Sunny 85 29.4 54 12.2 35 35 S 8 13 29.88 1012 10 16.0934 0 0
6:56 pm 18:56 Sunny 84 28.9 55 12.8 37 37 SW 9 15 29.86 1011 10 16.0934 0 0
7:56 pm 19:56 Sunny 82 27.8 55 12.8 40 40 WSW 8 13 29.86 1011 10 16.0934 0 0
8:56 pm 20:56 Clear 76 24.4 56 13.3 50 50 SW 6 9 29.87 1012 10 16.0934 0 0
9:56 pm 21:56 Clear 75 23.9 56 13.3 52 52 SSW 5 7 29.86 1011 10 16.0934 0 0
10:56 pm 22:56 Clear 72 22.2 57 13.9 59 59 SSW 3 6 29.87 1011 10 16.0934 0 0
11:56 pm 23:56 Clear 72 22.2 57 13.9 59 59 SSW 3 6 29.86 1011 10 16.0934 0 0

Powered by AerisWeather